Content
SEND FEEDBACK

Daily
Averages
Monthly
Summary
United States of America

ROCK HILL, NEW YORK


Home > North America > United States > New York
Elevation: 1260 feet     Latitude: 41 35N     Longitude: 074 37W

WEATHER
 
SELECT A DAY
Number of Records: 443,048;   Date Range: 1/1/95 - 7/7/14
 
SHARE

PRINT THIS DATA

[ ← Previous Day ]
WEATHER ALMANAC - JANUARY 3, 2014
[ Next Day → ]
[ °C ]   °F
Weather ElementAverageHighLow
Temperature3.9 °F10.4 °F (12:35 am)-5.8 °F (10:35 pm)
Dewpoint-4.8 °F6.8 °F (1:35 am)-14.8 °F (11:35 pm)
Humidity67 %85 % (1:35 am)47 % (3:55 pm)
Barometer30.03 in30.34 in (9:15 pm)29.67 in (1:55 am)
Wind Speed9.6 mph24.2 mph (2:35 pm)
Wind Gust34.5 mph (2:35 pm)
Weather ElementAverage
Visibility6.9 mi
Wind DirectionWSW (260.4 °)

Weather ElementTotal
Precipitation---
Heating Degree Days62.7 (Base 65)
Averaged from 71 records on January 3, 2014
WEATHER CONDITIONS BREAKOUT
WIND DIRECTION BREAKOUT
WEATHER BY HOUR - JANUARY 3, 2014
[ °C ]   °F
Local TimeTemperatureDewpointHumidityBarometerVisibilityWind DirectionWind SpeedGust SpeedPrecipitationEventsConditions
12:35 AM10.4 °F5.0 °F79 %29.68 in0.8 miCalmOvercast
12:55 AM10.4 °F5.0 °F79 %29.68 in1.0 miCalmOvercast
1:15 AM10.4 °F5.0 °F79 %29.69 in1.0 miCalmOvercast
1:35 AM10.4 °F6.8 °F85 %29.68 in1.2 miCalmOvercast
1:55 AM10.4 °F5.0 °F79 %29.67 in1.5 miCalmOvercast
2:15 AM10.4 °F6.8 °F85 %29.67 in1.8 miCalmOvercast
2:35 AM10.4 °F6.8 °F85 %29.68 in1.5 miCalmOvercast
2:55 AM10.4 °F5.0 °F79 %29.69 in2.0 miNorth (360°)4.6 mphOvercast
3:15 AM10.4 °F5.0 °F79 %29.69 in3.0 miCalmScattered Clouds
3:35 AM10.4 °F3.2 °F73 %29.69 in3.0 miNW (310°)8.1 mphMostly Cloudy
3:55 AM8.6 °F3.2 °F79 %29.70 in1.8 miWNW (300°)10.4 mphOvercast
4:15 AM8.6 °F1.4 °F73 %29.70 in1.5 miNW (320°)6.9 mphOvercast
4:35 AM8.6 °F1.4 °F73 %29.71 in2.0 miNW (320°)9.2 mphOvercast
4:55 AM8.6 °F1.4 °F73 %29.73 in3.0 miNW (320°)10.4 mph17.3 mphOvercast
5:15 AM6.8 °F-0.4 °F72 %29.74 in4.0 miNW (320°)12.7 mphOvercast
5:35 AM6.8 °F-0.4 °F72 %29.76 in1.8 miNW (310°)11.5 mphOvercast
5:55 AM6.8 °F-0.4 °F72 %29.77 in1.8 miNW (320°)13.8 mphOvercast
6:15 AM6.8 °F-2.2 °F67 %29.79 in3.0 miNW (320°)18.4 mph21.9 mphOvercast
6:35 AM6.8 °F-2.2 °F67 %29.81 in2.5 miNNW (340°)12.7 mph23.0 mphOvercast
6:55 AM6.8 °F-0.4 °F72 %29.82 in6.0 miNW (320°)12.7 mph18.4 mphOvercast
7:15 AM6.8 °F-0.4 °F72 %29.85 in4.0 miNW (320°)9.2 mph17.3 mphMostly Cloudy
7:35 AM6.8 °F-2.2 °F67 %29.86 in9.0 miNW (310°)9.2 mphClear
7:55 AM6.8 °F-0.4 °F72 %29.87 in9.0 miNW (310°)11.5 mphScattered Clouds
8:15 AM6.8 °F-0.4 °F72 %29.89 in8.0 miWNW (300°)11.5 mph19.6 mphScattered Clouds
8:35 AM6.8 °F-4.0 °F61 %29.91 in7.0 miNW (310°)17.3 mph24.2 mphMostly Cloudy
8:55 AM5.0 °F-4.0 °F66 %29.93 in5.0 miNW (310°)16.1 mph23.0 mphPartly Cloudy
9:15 AM5.0 °F-5.8 °F61 %29.94 in9.0 miNW (320°)13.8 mph24.2 mphScattered Clouds
9:35 AM3.2 °F-5.8 °F66 %29.95 in8.0 miWNW (300°)12.7 mph21.9 mphPartly Cloudy
9:55 AM3.2 °F-5.8 °F66 %29.97 in9.0 miWest (280°)6.9 mph17.3 mphClear
10:15 AM3.2 °F-2.2 °F78 %29.98 in10.0 miNW (320°)16.1 mph21.9 mphClear
10:35 AM3.2 °F-7.6 °F61 %30.00 in6.0 miNW (310°)17.3 mph27.6 mphClear
10:55 AM3.2 °F-5.8 °F66 %30.02 in10.0 miNW (310°)13.8 mph23.0 mphClear
11:15 AM3.2 °F-7.6 °F61 %30.02 in9.0 miNW (310°)18.4 mph24.2 mphClear
11:35 AM3.2 °F-7.6 °F61 %30.02 in8.0 miNW (310°)18.4 mph25.3 mphClear
11:55 AM5.0 °F-5.8 °F61 %30.02 in8.0 miWNW (300°)17.3 mph25.3 mphClear
12:15 PM5.0 °F-5.8 °F61 %30.04 in10.0 miNW (310°)13.8 mph24.2 mphScattered Clouds
12:35 PM5.0 °F-7.6 °F56 %30.05 in6.0 miNW (320°)15.0 mph28.8 mphPartly Cloudy
12:55 PM5.0 °F-5.8 °F61 %30.06 in4.0 miNW (310°)15.0 mph31.1 mphClear
1:15 PM5.0 °F-7.6 °F56 %30.07 in5.0 miNNW (330°)20.7 mph29.9 mphClear
1:35 PM5.0 °F-7.6 °F56 %30.08 in5.0 miNW (310°)16.1 mph31.1 mphClear
1:55 PM6.8 °F-5.8 °F56 %30.10 in10.0 miWNW (300°)16.1 mph23.0 mphClear
2:15 PM6.8 °F-7.6 °F52 %30.12 in2.5 miNW (310°)23.0 mph32.2 mphClear
2:35 PM5.0 °F-7.6 °F56 %30.13 in4.0 miNW (310°)24.2 mph34.5 mphClear
2:55 PM5.0 °F-7.6 °F56 %30.14 in7.0 miNW (310°)16.1 mph26.5 mphClear
3:15 PM5.0 °F-7.6 °F56 %30.15 in10.0 miNW (310°)13.8 mph21.9 mphClear
3:35 PM5.0 °F-9.4 °F52 %30.17 in10.0 miNW (320°)17.3 mph23.0 mphClear
3:55 PM5.0 °F-11.2 °F47 %30.17 in10.0 miNW (320°)13.8 mph23.0 mphClear
4:15 PM3.2 °F-9.4 °F56 %30.19 in10.0 miNNW (330°)11.5 mph17.3 mphClear
4:35 PM3.2 °F-11.2 °F51 %30.20 in10.0 miNW (320°)9.2 mph18.4 mphClear
4:55 PM3.2 °F-11.2 °F51 %30.22 in10.0 miNNW (330°)9.2 mphClear
5:15 PM1.4 °F0.0 °F30.23 in10.0 miNNW (330°)5.8 mphClear
5:35 PM1.4 °F0.0 °F30.25 in10.0 miNW (310°)6.9 mphClear
5:55 PM1.4 °F-11.2 °F56 %30.26 in10.0 miNW (310°)5.8 mphClear
6:15 PM1.4 °F-11.2 °F56 %30.27 in10.0 miNW (320°)6.9 mphClear
6:35 PM-0.4 °F-11.2 °F60 %30.28 in10.0 miNW (320°)9.2 mphClear
6:55 PM-0.4 °F-11.2 °F60 %30.30 in10.0 miWNW (300°)6.9 mphClear
7:15 PM-0.4 °F-11.2 °F60 %30.30 in10.0 miWNW (300°)6.9 mphClear
7:35 PM-0.4 °F-11.2 °F60 %30.31 in10.0 miWest (280°)9.2 mphClear
7:55 PM-0.4 °F-9.4 °F66 %30.32 in10.0 miWNW (290°)5.8 mphClear
8:15 PM-0.4 °F-11.2 °F60 %30.33 in10.0 miCalmClear
8:35 PM-2.2 °F-11.2 °F66 %30.33 in10.0 miCalmClear
8:55 PM-4.0 °F-11.2 °F71 %30.32 in10.0 miWest (270°)4.6 mphClear
9:15 PM-4.0 °F-11.2 °F71 %30.34 in10.0 miWest (270°)3.5 mphClear
9:35 PM-4.0 °F-9.4 °F78 %30.33 in10.0 miNW (310°)6.9 mphClear
9:55 PM-2.2 °F-9.4 °F71 %30.34 in10.0 miNW (310°)4.6 mphClear
10:15 PM-4.0 °F-11.2 °F71 %30.34 in10.0 miCalmClear
10:35 PM-5.8 °F-13.0 °F71 %30.34 in10.0 miWSW (250°)4.6 mphClear
10:55 PM-5.8 °F-11.2 °F77 %30.34 in10.0 miWest (270°)4.6 mphClear
11:15 PM-5.8 °F-9.4 °F84 %30.34 in10.0 miWest (270°)5.8 mphClear
11:35 PM-5.8 °F-14.8 °F65 %30.33 in10.0 miWest (280°)4.6 mphClear
11:55 PM-5.8 °F-9.4 °F84 %30.33 in10.0 miWest (280°)3.5 mphClear
Hourly data recorded from KMSV, located miles away from Rock Hill, New York







STORIES FROM OUR PARTNERS